{"data":{"norad_id":46155,"intl_designator":"2020-057AQ","name":"STARLINK-1667","alt_names":[],"object_type":"PAYLOAD","status":"ACTIVE","operator":null,"country":"US","launch_date":"2020-08-18","launch_site_code":"AFETR","launch_vehicle":null,"mission":null,"orbit_class":"UNKNOWN","rcs_meters":null,"size_class":null,"mass_kg":null,"dimensions":null,"purposes":["comms"],"wikipedia_slug":null,"has_3d_model":false,"image_url":null,"decayed_at":null,"tle_current":{"epoch":"2026-07-03T21:32:08.887776Z","epoch_age_seconds":6809506,"freshness":"OLD","line1":"1 46155U 20057AQ  26184.89732509  .06909011  12312-4  69923-3 0  9990","line2":"2 46155  52.9948 359.8183 0012793 282.1188  77.8423 16.36899098326987","mean_motion":16.36899098,"eccentricity":0.0012793,"inclination_deg":52.9948,"raan_deg":359.8183,"arg_perigee_deg":282.1188,"mean_anomaly_deg":77.8423,"bstar":0.00069923,"rev_number":32698,"period_min":87.971213482824,"perigee_km":165.68212155836,"apogee_km":182.44658393951,"semimajor_km":6552.2013527489,"source":"CELESTRAK","updated_at":"2026-07-04T09:00:26.403363Z"}}}